Preview of NWS' New Version of Forecast
This preview is not operational and should not be used for support decisions.

Regional Weather Roundup (RWR)

Issued by Gray - Portland, ME (GYX)

                            
000
ASUS41 KGYX 210305
RWRGYX
WEATHER ROUNDUP FOR MAINE AND NEW HAMPSHIRE
NATIONAL WEATHER SERVICE GRAY ME
1100 PM EDT TUE AUG 20 2019

MEZ002-005-006-010-012-015-018-020-021-024-026-027-029-210400-
MAINE
  
CITY           SKY/WX    TMP DP  RH WIND       PRES   REMARKS
PORTLAND       FAIR      69  55  60 SW3       30.04S                  
SANFORD        FAIR      58  57  97 CALM      30.05S                  
BAR HARBOR     FAIR      64  59  83 SW6       30.04S                  
WISCASSET      FAIR      60  56  86 CALM      30.05S                  
ROCKLAND       FAIR      60  58  92 CALM      30.04S                  
FRYEBURG       FAIR      60  57  89 CALM      30.05R                  
LEWISTONAUBURN FAIR      64  57  78 CALM      30.04S                  
AUGUSTA        FAIR      65  56  72 S5        30.04S                  
WATERVILLE     FAIR      65  58  78 SW3       30.02S                  
BANGOR         FAIR      66  60  81 S3        30.03R                  
GREENVILLE     NOT AVBL                                               
MILLINOCKET    FAIR      64  58  80 CALM      30.02S                  
HOULTON        FAIR      61  56  83 S6        29.99R                  
PRESQUE ISLE   FAIR      60  56  86 CALM      29.99S                  
FRENCHVILLE    FAIR      64  51  62 SW5       29.97S                  
CARIBOU        FAIR      63  54  72 S3        29.98R                  
$$

NHZ002-005-008-009-011-012-014-210400-
NEW HAMPSHIRE
  
CITY           SKY/WX    TMP DP  RH WIND       PRES   REMARKS
PORTSMOUTH     PTCLDY    65  59  80 CALM      30.02S                  
ROCHESTER      FAIR      65  58  78 CALM      30.04S                  
NASHUA         FAIR      66  64  93 NW3       30.05S                  
MANCHESTER     FAIR      71  61  70 SE5       30.03R                  
CONCORD        FAIR      63  60  90 CALM      30.05R                  
LACONIA        FAIR      66  62  87 NW6       30.05R                  
PLYMOUTH         N/A     59  58  95 CALM      30.05S FOG              
BERLIN         NOT AVBL                                               
WHITEFIELD     FAIR      57  54  89 CALM      30.06S                  
JAFFREY        FAIR      62  58  86 S3        30.09S                  
KEENE          FAIR      62  61  96 CALM      30.06S                  
LEBANON        FAIR      61  54  77 CALM      30.05R                  
MT WASHINGTON  PTCLDY    52  46  82 W18         N/A                   
$$

VTZ005-007-008-210400-
VERMONT
  
CITY           SKY/WX    TMP DP  RH WIND       PRES   REMARKS
ST JOHNSBURY     N/A     62  60  93 MISG      30.02F                  
MONTPELIER     FAIR      60  55  83 CALM      30.08F                  
BURLINGTON     FAIR      70  56  61 S6        30.00S                  
$$

MAZ007-012-024-CTZ003-RIZ002-NYZ038-NYZ072-210400-
SOUTHERN NEW ENGLAND AND NY
  
CITY           SKY/WX    TMP DP  RH WIND       PRES   REMARKS
BOSTON         MOCLDY    73  63  70 S6        30.05R                  
WORCESTER      FAIR      70  56  61 SW6       30.09S                  
NANTUCKET      FAIR      64  62  93 SE6       30.07R                  
PROVIDENCE     FAIR      72  64  76 W5        30.06S                  
HARTFORD       FAIR      73  64  73 S3        30.04S                  
ALBANY         FAIR      73  64  73 CALM      30.02S                  
NEW YORK CITY  MOCLDY    80  67  64 S9        30.03F                  
$$

ANZ081-ANZ082-ANZ150-NHZ014-MEZ023>029-210400-
COASTAL MARINE OBSERVATIONS
  
STATION/POSITION TIME  TEMP    WIND        PRES    WAVE
                       AIR SEA DIR/SP/G            HT/PER
                 (UTC) (F)     (DEG/KT/KT) (MB)    (FT/S)
MATINICUS ROCK   0250   65                 1016.9F
ISLE OF SHOALS   0200   69     180/ 14/ 14 1016.5F
JEFFREYS LEDGE   0238      65                N/A     2/ 7
CASHES LEDGE BUO 0250   66 64  190/  8/  8 1017.8F   2/ 7
GEORGES BANK BUO 0250   67     280/  4/  6 1019.0R   3/ 8
$$

.............KEY..............
   WCI - WIND CHILL
   TC  - TEMPERATURE IN CELSIUS
   VSB - VISIBILITY IN MILES
   HX  - HEAT INDEX
   FAIR- INDICATES FEW OR NO CLOUDS BELOW 12,000 FT, WITH NO 
         SIGNIFICANT WEATHER AND/OR OBSTRUCTIONS TO VISIBILITY.